Tracking 31027 objects as of 19-Jul-2025
HD Live streaming from Space Station
objects crossing your sky now

OPS 6630 (2)

Track OPS 6630 (2) now!
10-day predictions
OPS 6630 (2) is classified as:


NORAD ID: 6938
Int'l Code: 1973-088D
Perigee: 1,420.2 km
Apogee: 1,463.1 km
Inclination: 96.9 °
Period: 114.5 minutes
Semi major axis: 7812 km
RCS: 0.3492 m2 (medium)
Launch date: November 10, 1973
Source: United States (US)
Launch site: AIR FORCE WESTERN TEST RANGE (AFWTR)
Your satellite tracking list
ONEWEB-0142
Track 1 satellite(s)




NASA's NSSDC Master Catalog

Two Line Element Set (TLE):
1 06938U 73088D   25199.52530443 -.00000009  00000-0  57575-4 0  9997
2 06938  96.9291  39.1685 0027451  59.6001 354.3825 12.57199056371215
Source of the keplerian elements: AFSPC